Wind_Speed
14 17 17 21 21 20 21 18 15 6 5 4 10 7 7 8 11 8 9 13 22 13 16 14 12 13 13 12 10 9 9 9 9 11 12 15 13 11 14 20 26 23 27
8 9 14 19 20 23 22 23 23 17 16 9 5 4 11 6 11 7 19 10 10 12 12 13 11 9 8 8 9 9 7 3 7 8 10 12 9 12 13 21 24 26 27
12 10 9 14 19 19 24 27 27 26 23 17 14 8 9 6 9 2 4 11 12 11 13 14 12 7 7 4 2 3 2 3 3 4 8 9 11 14 18 22 24 24 26
15 13 13 11 14 19 21 26 31 32 30 28 23 15 19 12 9 9 9 12 15 16 15 10 9 17 12 6 5 1 3 3 6 6 7 10 12 15 21 22 24 23 24
17 16 15 15 12 14 19 21 26 33 35 33 31 26 27 16 8 12 18 8 11 22 24 18 15 17 12 11 8 9 3 4 5 8 9 10 13 15 19 21 23 25 27
14 14 14 15 16 16 16 18 21 23 33 33 32 28 26 24 23 14 20 18 20 21 12 16 16 16 20 15 12 10 6 7 10 13 13 14 13 17 19 18 19 20 22
17 15 12 12 14 17 20 20 19 23 27 33 32 31 33 27 30 24 23 24 22 26 20 22 20 18 21 18 19 15 13 9 10 12 13 13 11 12 15 18 19 21 20
25 20 21 18 15 16 18 22 23 23 25 29 28 31 38 39 31 35 30 27 26 25 23 26 25 22 20 23 20 12 19 18 15 15 15 15 13 13 16 16 17 19 17
32 27 25 21 24 24 19 18 21 25 24 28 28 28 30 35 39 41 38 33 33 32 33 33 27 27 23 19 18 22 26 24 20 19 19 16 17 16 14 16 17 18 16
32 34 33 29 31 29 26 21 20 23 28 27 30 34 31 30 36 39 41 31 32 39 37 35 31 30 24 21 20 23 23 21 19 22 22 18 19 17 17 15 15 17 18
32 36 38 39 38 38 32 29 25 22 26 31 31 30 35 33 35 36 39 44 41 35 36 29 30 32 28 27 26 23 24 23 21 21 24 24 24 21 20 20 21 21 19
34 46 42 43 43 42 40 35 32 30 27 28 32 35 32 35 35 38 37 40 42 38 33 29 24 33 31 29 28 24 27 24 25 22 20 22 23 26 23 25 26 24 23
35 55 52 46 48 47 40 41 37 36 34 32 31 34 37 34 38 41 37 36 46 50 51 43 39 32 33 31 28 26 29 28 27 26 23 25 32 29 26 26 25 23 20
43 48 52 51 53 52 49 47 40 38 39 40 35 35 36 38 35 42 42 40 42 47 55 48 41 35 33 35 34 27 26 27 29 29 29 30 32 27 26 25 25 20 18
52 51 52 54 56 57 55 50 49 39 42 45 40 36 38 39 38 41 45 43 39 41 48 51 44 43 37 36 35 30 25 30 30 27 27 25 26 28 29 26 24 21 22
55 59 59 57 61 62 62 57 53 44 41 45 45 42 37 40 40 40 45 44 44 42 45 39 40 46 42 41 38 36 32 25 26 30 29 24 30 33 33 26 26 24 25
65 65 65 66 64 64 66 65 57 47 40 41 40 45 40 39 42 40 47 45 45 44 47 42 38 37 43 42 36 32 31 31 20 24 26 27 27 32 36 31 27 26 27
70 72 72 73 75 71 66 68 58 48 37 35 27 36 46 44 42 41 48 48 46 46 51 45 45 42 42 40 39 34 30 28 24 27 30 32 35 35 38 31 28 29 27
76 77 77 77 78 74 70 66 59 50 34 37 43 41 41 46 42 45 49 49 45 46 50 49 46 45 41 33 30 36 40 34 34 33 36 41 39 40 36 33 33 33 36
84 84 82 80 78 73 68 63 53 45 42 38 50 47 45 45 42 46 52 50 48 47 48 46 48 45 34 24 39 37 38 39 40 42 45 45 40 41 39 35 33 38 42
91 89 86 84 75 67 63 59 49 43 41 37 44 54 45 48 45 50 53 51 52 50 47 44 50 50 49 42 39 41 47 51 46 51 50 50 50 47 42 41 43 47 49
98 92 89 83 76 64 60 54 49 44 41 41 38 50 45 51 50 54 55 54 54 56 50 50 49 55 60 55 47 49 46 50 51 56 52 56 56 50 50 49 53 53 55
100 94 87 79 72 63 55 51 51 45 41 43 44 47 52 54 57 56 57 57 58 58 57 54 55 56 59 53 61 54 46 52 51 52 56 55 56 54 54 56 59 58 57
93 88 82 74 68 60 53 48 47 45 43 44 47 47 47 54 58 61 58 59 59 61 67 63 57 60 64 63 56 51 51 53 54 54 54 52 53 56 59 61 58 55 53
82 76 78 73 64 56 49 48 45 46 46 48 50 51 51 46 55 63 66 62 64 60 66 69 65 65 66 69 68 63 66 63 62 62 62 61 63 64 57 57 56 53 51
76 72 73 68 58 51 48 50 47 50 51 51 53 58 56 53 48 60 70 67 65 64 62 64 64 65 65 71 69 63 63 62 62 60 59 61 58 57 55 55 57 58 61
Wind_Direction
268 257 248 244 237 224 228 223 217 234 206 179 246 288 271 306 319 349 337 351 24 21 23 37 32 45 58 60 65 93 89 101 93 68 49 50 47 38 31 15 17 11 16
292 285 255 244 245 238 232 233 227 212 215 211 171 228 222 253 270 292 9 343 347 347 5 20 16 358 28 51 53 42 42 49 91 85 40 36 18 21 20 8 7 5 6
318 308 291 257 245 239 236 233 223 235 223 223 238 211 198 230 248 210 296 304 307 318 329 343 330 351 344 13 78 61 321 295 330 1 7 4 355 354 360 355 355 356 2
326 317 310 298 262 248 239 230 232 234 233 232 216 206 228 256 215 203 196 266 293 307 306 286 306 307 306 302 290 111 50 343 288 295 322 332 340 333 338 340 340 345 353
1 342 321 311 303 273 259 248 234 230 233 234 227 224 235 224 225 237 220 226 254 291 274 266 273 289 275 290 296 271 282 300 315 310 314 316 317 315 315 325 328 334 336
350 358 347 320 306 296 283 263 256 249 239 234 234 247 236 218 213 208 235 241 224 234 289 245 271 273 281 282 284 286 265 298 295 285 294 312 325 332 330 336 339 336 343
353 343 340 344 327 307 296 292 264 249 252 244 241 246 239 221 202 212 231 229 227 239 260 261 269 257 264 279 272 276 279 293 280 290 305 306 323 338 343 348 347 346 349
9 356 345 335 338 339 315 297 291 277 255 249 250 245 242 231 232 232 220 225 232 236 247 256 251 256 260 257 268 284 277 280 283 279 290 291 303 309 315 329 333 334 335
9 3 0 341 335 329 330 319 295 277 275 260 252 243 239 238 233 233 227 231 220 225 240 256 253 254 257 262 261 266 269 278 273 275 281 286 293 294 302 311 322 333 320
4 1 355 352 355 339 320 305 311 297 271 260 254 246 243 233 229 227 230 218 225 232 237 253 258 256 254 256 264 273 265 266 273 272 271 282 288 297 299 304 312 318 320
356 359 354 350 340 343 332 309 292 284 287 268 258 252 244 239 225 231 232 225 223 234 238 241 249 249 244 246 258 263 260 257 265 264 269 277 277 283 296 296 295 296 308
310 340 346 344 339 337 336 318 294 280 267 269 262 258 250 240 232 229 233 233 227 220 221 222 244 240 243 242 245 252 258 257 265 264 267 270 279 277 288 299 297 302 297
314 325 333 337 334 333 333 331 309 280 271 264 260 257 255 248 241 230 228 231 232 228 228 227 236 239 235 240 249 253 254 265 268 268 266 263 272 275 278 291 299 301 303
316 322 325 328 328 326 330 333 320 295 267 261 257 256 252 249 244 231 228 231 235 237 229 229 238 236 234 230 240 251 258 268 271 257 258 251 266 270 269 285 291 294 296
317 317 320 322 322 323 326 330 328 303 280 268 258 252 252 246 242 235 229 227 229 236 242 240 239 234 231 235 233 238 253 252 268 265 267 267 265 271 273 281 280 282 284
311 314 316 316 319 321 321 327 327 314 287 270 263 255 248 244 242 241 229 231 229 231 240 233 230 235 232 235 234 243 249 249 262 251 259 262 265 267 266 274 276 278 281
311 312 313 315 316 317 319 323 325 320 295 273 264 262 254 242 240 239 230 228 229 229 234 238 220 237 232 233 238 242 239 230 256 250 256 255 257 263 270 275 272 264 280
308 311 314 313 314 315 317 318 321 319 303 269 261 266 261 243 241 239 231 231 230 227 224 232 230 235 235 240 235 224 214 235 252 250 251 251 249 254 260 268 268 273 274
310 310 310 309 310 311 313 314 317 314 296 251 234 248 252 248 244 236 228 229 227 226 223 225 226 228 231 241 241 229 238 241 244 240 245 248 254 258 262 261 267 274 278
306 306 307 306 307 307 308 310 313 309 296 261 237 246 252 244 242 234 226 225 226 224 222 219 218 216 210 237 243 232 238 240 239 242 250 253 255 260 261 263 265 270 274
304 303 303 302 301 302 303 307 306 301 291 270 248 243 249 242 234 226 225 227 225 225 220 218 218 212 202 220 219 232 239 241 248 248 249 258 263 260 260 262 270 274 277
300 299 298 298 299 297 297 299 297 292 281 268 263 247 246 235 233 229 227 228 226 225 223 220 215 215 212 216 224 230 230 240 242 249 253 252 256 260 264 271 276 278 281
298 296 294 294 294 293 291 293 290 286 275 267 259 259 248 236 234 234 232 230 230 225 219 222 220 217 216 224 224 229 239 244 241 247 249 253 259 266 267 269 275 276 277
292 292 292 292 290 287 283 284 281 279 270 265 260 253 254 238 235 231 235 231 228 226 219 220 224 224 220 220 224 235 242 244 246 252 258 259 261 266 270 275 274 272 271
292 290 289 289 285 276 272 272 272 269 273 268 259 256 254 253 243 235 232 235 231 230 228 228 228 225 229 233 236 241 244 251 254 255 260 261 265 267 266 264 265 267 270
290 290 285 284 276 266 264 264 266 265 271 270 262 257 258 257 248 244 237 234 238 233 233 233 232 231 233 234 239 243 248 249 252 256 259 261 262 260 259 262 269 270 278
Height
11010 11010 11011 11011 11012 11016 11018 11018 11019 11020 11021 11025 11024 11024 11026 11025 11022 11022 11022 11020 11022 11020 11019 11016 11020 11017 11012 11010 11009 11005 11005 11004 11003 11005 11006 11004 11002 11000 10997 10996 10995 10993 10990
11009 11006 11005 11006 11006 11009 11012 11011 11012 11015 11019 11019 11019 11019 11021 11023 11022 11025 11037 11026 11024 11023 11020 11020 11023 11024 11018 11014 11010 11008 11007 11005 11003 11002 11004 11005 11003 11002 10999 10997 10997 10995 10992
11009 11006 11002 11001 11002 11003 11004 11005 11007 11007 11011 11014 11015 11015 11016 11021 11022 11026 11023 11030 11024 11025 11021 11020 11025 11027 11023 11018 11013 11008 11007 11007 11004 11003 11004 11004 11004 11002 11000 10998 10998 10998 10995
11005 11004 11003 11000 10998 10998 10998 10999 11000 11001 11004 11006 11008 11010 11015 11018 11019 11020 11017 11025 11025 11018 11014 11015 11019 11024 11024 11018 11015 11008 11006 11006 11005 11003 11004 11003 11003 11002 11000 10999 10998 10998 10996
11003 11002 11001 11000 10998 10995 10993 10994 10995 10995 10995 10997 11001 11004 11007 11012 11013 11015 11011 11016 11021 11014 11007 11008 11007 11016 11018 11016 11013 11009 11006 11006 11004 11004 11004 11004 11002 11001 11000 10998 10996 10995 10995
11000 10998 10997 10996 10996 10994 10991 10990 10989 10990 10990 10991 10993 10994 10995 11006 11010 11007 11008 11007 10996 11001 10992 11001 11002 11007 11013 11011 11010 11007 11004 11004 11003 11002 11003 11004 11001 10999 10999 10997 10995 10993 10991
10999 10997 10995 10993 10992 10991 10989 10988 10986 10984 10985 10988 10989 10989 10988 10995 11006 11004 11003 11001 11000 10996 10999 10997 10996 11001 11006 11010 11006 11003 11003 11000 10999 10999 11001 11002 11001 10999 10996 10994 10994 10992 10989
11000 10996 10993 10991 10991 10989 10986 10984 10984 10983 10980 10981 10983 10983 10983 10989 10995 10997 10999 10999 10999 10997 10992 10992 10994 10997 11000 11004 11002 11000 11000 10999 10996 10995 10997 10999 10998 10997 10994 10993 10993 10992 10989
11002 10998 10994 10991 10988 10985 10983 10981 10978 10977 10977 10978 10977 10977 10976 10980 10984 10985 10985 10989 10991 10991 10993 10993 10992 10993 10993 10997 10997 10997 10997 10997 10995 10993 10994 10994 10994 10993 10992 10991 10991 10989 10987
11003 11000 10995 10991 10988 10982 10976 10974 10972 10971 10970 10971 10969 10969 10970 10972 10973 10973 10974 10976 10976 10982 10986 10984 10983 10987 10990 10989 10991 10991 10989 10991 10990 10990 10990 10991 10991 10991 10990 10989 10989 10988 10986
10999 10996 10994 10990 10984 10979 10972 10968 10964 10961 10960 10961 10962 10963 10962 10965 10966 10966 10966 10967 10970 10973 10977 10976 10978 10981 10982 10983 10982 10979 10981 10983 10987 10986 10986 10986 10988 10988 10987 10987 10987 10985 10982
10987 10988 10986 10984 10982 10977 10970 10962 10956 10954 10951 10950 10950 10952 10956 10957 10958 10958 10960 10961 10964 10967 10969 10969 10975 10978 10977 10977 10975 10976 10974 10978 10983 10981 10978 10980 10982 10984 10983 10983 10983 10980 10978
10982 10977 10975 10975 10973 10971 10967 10957 10951 10946 10942 10941 10941 10940 10944 10946 10948 10950 10952 10954 10957 10961 10961 10965 10972 10974 10973 10968 10968 10967 10970 10973 10975 10975 10974 10977 10977 10977 10978 10979 10978 10975 10973
10978 10974 10969 10965 10962 10961 10957 10950 10942 10936 10934 10929 10931 10931 10931 10934 10936 10938 10941 10945 10947 10949 10951 10956 10961 10963 10964 10963 10962 10962 10964 10968 10969 10968 10968 10969 10970 10972 10972 10972 10972 10970 10968
10967 10966 10964 10958 10955 10952 10949 10941 10933 10927 10921 10920 10921 10920 10920 10922 10924 10926 10927 10933 10936 10937 10938 10944 10948 10951 10953 10956 10956 10957 10958 10961 10962 10962 10962 10964 10964 10966 10966 10965 10965 10964 10963
10962 10955 10953 10951 10943 10937 10933 10930 10922 10916 10911 10907 10908 10911 10910 10913 10913 10915 10918 10921 10924 10927 10926 10931 10937 10939 10942 10944 10945 10948 10951 10953 10954 10955 10957 10958 10957 10957 10958 10958 10958 10958 10957
10946 10944 10939 10935 10935 10929 10917 10915 10910 10905 10901 10896 10899 10898 10901 10902 10901 10902 10906 10909 10911 10915 10916 10921 10926 10926 10930 10936 10938 10942 10943 10947 10947 10948 10949 10951 10951 10950 10950 10951 10950 10950 10949
10933 10927 10921 10917 10912 10910 10907 10901 10898 10895 10890 10885 10890 10887 10887 10888 10889 10891 10895 10898 10901 10905 10905 10908 10916 10918 10921 10926 10932 10935 10937 10938 10940 10941 10942 10944 10943 10942 10940 10942 10943 10943 10942
10913 10910 10906 10901 10895 10891 10889 10886 10881 10876 10876 10875 10872 10871 10873 10875 10875 10877 10882 10886 10891 10893 10896 10898 10904 10909 10915 10920 10924 10927 10929 10931 10932 10931 10932 10935 10935 10934 10935 10935 10934 10934 10933
10897 10893 10889 10883 10879 10873 10870 10867 10863 10859 10856 10858 10860 10862 10863 10863 10863 10866 10870 10875 10880 10882 10884 10888 10895 10899 10908 10913 10911 10914 10916 10917 10919 10922 10922 10925 10924 10924 10924 10925 10925 10924 10924
10877 10872 10869 10864 10860 10856 10851 10848 10845 10843 10841 10841 10844 10848 10850 10851 10851 10853 10858 10864 10868 10872 10874 10878 10882 10886 10890 10894 10894 10899 10901 10903 10907 10909 10911 10911 10913 10914 10914 10913 10912 10912 10913
10854 10851 10846 10842 10840 10838 10833 10832 10829 10827 10825 10826 10828 10831 10837 10838 10841 10843 10846 10850 10854 10858 10862 10866 10870 10873 10874 10878 10884 10883 10885 10886 10890 10894 10896 10897 10899 10901 10901 10901 10900 10900 10900
10826 10820 10821 10818 10816 10816 10813 10814 10810 10810 10812 10812 10814 10815 10819 10823 10826 10828 10833 10837 10841 10846 10849 10852 10856 10860 10865 10868 10870 10871 10872 10875 10878 10881 10883 10883 10885 10886 10886 10886 10886 10885 10887
10802 10797 10791 10794 10793 10792 10792 10796 10794 10796 10798 10797 10797 10799 10800 10806 10810 10814 10818 10823 10827 10832 10837 10840 10843 10847 10850 10854 10857 10859 10862 10864 10866 10867 10868 10869 10870 10870 10870 10871 10870 10871 10871
10774 10774 10767 10766 10771 10770 10771 10777 10779 10781 10780 10780 10781 10781 10785 10789 10793 10797 10802 10808 10812 10817 10822 10825 10828 10831 10833 10836 10841 10846 10849 10850 10851 10854 10855 10854 10856 10857 10856 10856 10858 10858 10858
10750 10748 10745 10741 10746 10748 10753 10757 10760 10762 10762 10762 10762 10764 10766 10771 10776 10779 10783 10791 10798 10801 10806 10809 10811 10815 10817 10821 10827 10829 10831 10831 10833 10837 10840 10839 10840 10842 10843 10842 10843 10844 10844